• In Denmark
  • List of Countries
  • For 7 days
  • Water Temperature
  • Satellite Maps
  • Weather Map
  • Weather Widgets
  • user-avatar
    Login

    Hourly Weather Francistown

    Today, 16 October, Tuesday

    Time Temperature Precipitation Wind Pressure Humidity
    00:00 +27°C° 0 mm 2 mps 676 mmHg 34%
    01:00 +27°C° 0 mm 2 mps 676 mmHg 36%
    02:00 +26°C° 0 mm 2 mps 676 mmHg 44%
    03:00 +25°C° 0 mm 2 mps 676 mmHg 46%
    04:00 +25°C° 0 mm 2 mps 676 mmHg 48%
    05:00 +24°C° 0 mm 1 mps 676 mmHg 49%
    06:00 +26°C° 0 mm 2 mps 677 mmHg 45%
    07:00 +28°C° 0 mm 2 mps 677 mmHg 40%
    08:00 +30°C° 0 mm 3 mps 679 mmHg 34%
    09:00 +33°C° 0 mm 3 mps 679 mmHg 29%
    10:00 +35°C° 0 mm 3 mps 679 mmHg 24%
    11:00 +36°C° 0 mm 4 mps 679 mmHg 20%
    12:00 +37°C° 0 mm 3 mps 678 mmHg 17%
    13:00 +37°C° 0 mm 2 mps 678 mmHg 15%
    14:00 +38°C° 0 mm 2 mps 677 mmHg 13%
    15:00 +36°C° 0 mm 1 mps 677 mmHg 14%
    16:00 +36°C° 0 mm 1 mps 677 mmHg 14%
    17:00 +36°C° 0 mm 1 mps 676 mmHg 14%
    18:00 +35°C° 0 mm 2 mps 677 mmHg 16%
    19:00 +34°C° 0 mm 2 mps 677 mmHg 18%
    20:00 +31°C° 0 mm 3 mps 677 mmHg 20%
    21:00 +30°C° 0 mm 3 mps 677 mmHg 23%
    22:00 +29°C° 0 mm 4 mps 677 mmHg 26%
    23:00 +29°C° 0 mm 4 mps 677 mmHg 29%

    Tomorrow, 17 October, Wednesday

    Time Temperature Precipitation Wind Pressure Humidity
    00:00 +28°C° 0 mm 4 mps 676 mmHg 31%
    01:00 +27°C° 0 mm 4 mps 676 mmHg 33%
    02:00 +26°C° 0 mm 3 mps 675 mmHg 35%
    03:00 +26°C° 0 mm 3 mps 675 mmHg 37%
    04:00 +25°C° 0 mm 2 mps 675 mmHg 39%
    05:00 +24°C° 0 mm 2 mps 675 mmHg 41%
    06:00 +26°C° 0 mm 2 mps 676 mmHg 37%
    07:00 +28°C° 0 mm 3 mps 676 mmHg 33%
    08:00 +30°C° 0 mm 3 mps 677 mmHg 29%
    09:00 +33°C° 0 mm 3 mps 677 mmHg 24%
    10:00 +36°C° 0 mm 3 mps 677 mmHg 20%
    11:00 +38°C° 0 mm 3 mps 677 mmHg 16%
    12:00 +39°C° 0 mm 3 mps 676 mmHg 14%
    13:00 +39°C° 0 mm 3 mps 676 mmHg 13%
    14:00 +40°C° 0 mm 3 mps 675 mmHg 11%
    15:00 +39°C° 0 mm 3 mps 675 mmHg 11%
    16:00 +39°C° 0 mm 2 mps 674 mmHg 12%
    17:00 +38°C° 0 mm 2 mps 674 mmHg 12%
    18:00 +37°C° 0 mm 2 mps 674 mmHg 13%
    19:00 +36°C° 0 mm 2 mps 675 mmHg 15%
    20:00 +34°C° 0 mm 3 mps 675 mmHg 16%
    21:00 +33°C° 0 mm 3 mps 675 mmHg 20%
    22:00 +31°C° 0 mm 3 mps 675 mmHg 23%
    23:00 +30°C° 0 mm 3 mps 675 mmHg 26%

    Day after tomorrow, 18 October, Thursday

    Time Temperature Precipitation Wind Pressure Humidity
    00:00 +29°C° 0 mm 3 mps 675 mmHg 30%
    01:00 +28°C° 0 mm 3 mps 675 mmHg 34%
    02:00 +27°C° 0 mm 3 mps 674 mmHg 37%
    03:00 +26°C° 0 mm 4 mps 674 mmHg 44%
    04:00 +25°C° 0 mm 5 mps 675 mmHg 51%
    05:00 +23°C° 0 mm 6 mps 675 mmHg 58%
    06:00 +23°C° 0 mm 6 mps 675 mmHg 59%
    07:00 +24°C° 0 mm 7 mps 676 mmHg 61%
    08:00 +24°C° 0 mm 7 mps 677 mmHg 63%
    09:00 +27°C° 0 mm 7 mps 677 mmHg 55%
    10:00 +29°C° 0 mm 6 mps 677 mmHg 48%
    11:00 +32°C° 0 mm 6 mps 677 mmHg 40%
    12:00 +33°C° 0 mm 6 mps 677 mmHg 37%
    13:00 +34°C° 0 mm 6 mps 676 mmHg 34%
    14:00 +35°C° 0 mm 6 mps 676 mmHg 31%
    15:00 +34°C° 0 mm 6 mps 675 mmHg 34%
    16:00 +33°C° 0 mm 7 mps 675 mmHg 38%
    17:00 +32°C° 0 mm 7 mps 674 mmHg 42%
    18:00 +29°C° 0 mm 8 mps 675 mmHg 48%
    19:00 +27°C° 0 mm 8 mps 675 mmHg 54%
    20:00 +24°C° 0 mm 8 mps 676 mmHg 60%
    21:00 +23°C° 0 mm 8 mps 676 mmHg 64%
    22:00 +21°C° 0 mm 8 mps 676 mmHg 68%
    23:00 +20°C° 0 mm 8 mps 677 mmHg 72%

    19 October, Friday

    Time Temperature Precipitation Wind Pressure Humidity
    00:00 +20°C° 0 mm 7 mps 676 mmHg 74%
    01:00 +20°C° 0 mm 7 mps 676 mmHg 75%
    02:00 +19°C° 0 mm 6 mps 676 mmHg 77%
    03:00 +19°C° 0 mm 6 mps 676 mmHg 78%
    04:00 +19°C° 0 mm 5 mps 676 mmHg 79%
    05:00 +19°C° 0 mm 5 mps 676 mmHg 80%
    06:00 +20°C° 0 mm 5 mps 676 mmHg 75%
    07:00 +21°C° 0 mm 5 mps 677 mmHg 69%
    08:00 +23°C° 0 mm 5 mps 678 mmHg 63%
    09:00 +27°C° 0 mm 5 mps 678 mmHg 53%
    10:00 +30°C° 0 mm 5 mps 678 mmHg 43%
    11:00 +34°C° 0 mm 5 mps 678 mmHg 32%
    12:00 +35°C° 0 mm 5 mps 678 mmHg 29%
    13:00 +36°C° 0 mm 5 mps 677 mmHg 25%
    14:00 +39°C° 0 mm 5 mps 677 mmHg 22%
    15:00 +37°C° 0 mm 5 mps 676 mmHg 22%
    16:00 +36°C° 0 mm 5 mps 676 mmHg 23%
    17:00 +36°C° 0 mm 6 mps 676 mmHg 24%
    18:00 +34°C° 0 mm 6 mps 676 mmHg 29%
    19:00 +32°C° 0 mm 5 mps 676 mmHg 34%
    20:00 +28°C° 0 mm 5 mps 677 mmHg 39%
    21:00 +27°C° 0 mm 5 mps 677 mmHg 43%
    22:00 +26°C° 0 mm 5 mps 677 mmHg 47%
    23:00 +26°C° 0 mm 5 mps 677 mmHg 50%

    20 October, Saturday

    Time Temperature Precipitation Wind Pressure Humidity
    00:00 +25°C° 0 mm 5 mps 677 mmHg 54%
    01:00 +23°C° 0 mm 4 mps 676 mmHg 58%
    02:00 +22°C° 0 mm 4 mps 676 mmHg 61%
    03:00 +22°C° 0 mm 4 mps 676 mmHg 65%
    04:00 +21°C° 0 mm 3 mps 676 mmHg 68%
    05:00 +20°C° 0 mm 3 mps 676 mmHg 71%
    06:00 +23°C° 0 mm 4 mps 677 mmHg 61%
    07:00 +26°C° 0 mm 5 mps 677 mmHg 52%
    08:00 +28°C° 0 mm 5 mps 678 mmHg 42%
    09:00 +32°C° 0 mm 5 mps 678 mmHg 33%
    10:00 +35°C° 0 mm 5 mps 678 mmHg 23%
    11:00 +39°C° 0 mm 5 mps 678 mmHg 14%
    12:00 +40°C° 0 mm 4 mps 678 mmHg 12%
    13:00 +41°C° 0 mm 4 mps 677 mmHg 10%
    14:00 +42°C° 0 mm 3 mps 676 mmHg 9%
    15:00 +42°C° 0 mm 4 mps 676 mmHg 9%
    16:00 +41°C° 0 mm 4 mps 676 mmHg 9%
    17:00 +41°C° 0 mm 5 mps 676 mmHg 9%
    18:00 +39°C° 0 mm 5 mps 676 mmHg 12%
    19:00 +36°C° 0 mm 5 mps 676 mmHg 15%
    20:00 +34°C° 0 mm 6 mps 676 mmHg 17%
    21:00 +33°C° 0 mm 7 mps 676 mmHg 23%
    22:00 +32°C° 0 mm 8 mps 677 mmHg 28%
    23:00 +29°C° 0 mm 9 mps 677 mmHg 33%

    21 October, Sunday

    Time Temperature Precipitation Wind Pressure Humidity
    00:00 +27°C° 0 mm 9 mps 677 mmHg 43%
    01:00 +26°C° 0 mm 9 mps 677 mmHg 54%
    02:00 +23°C° 0 mm 9 mps 678 mmHg 64%
    03:00 +22°C° 0 mm 10 mps 678 mmHg 65%
    04:00 +19°C° 0 mm 10 mps 679 mmHg 66%
    05:00 +18°C° 0 mm 11 mps 679 mmHg 67%
    06:00 +18°C° 0 mm 11 mps 680 mmHg 67%
    07:00 +18°C° 0 mm 11 mps 680 mmHg 66%
    08:00 +18°C° 0 mm 11 mps 681 mmHg 65%
    09:00 +17°C° 0.1 mm 11 mps 681 mmHg 63%
    10:00 +17°C° 0.1 mm 11 mps 681 mmHg 61%
    11:00 +16°C° 0.1 mm 11 mps 681 mmHg 59%
    12:00 +18°C° 0 mm 11 mps 681 mmHg 52%
    13:00 +19°C° 0 mm 11 mps 681 mmHg 46%
    14:00 +21°C° 0 mm 11 mps 681 mmHg 39%
    15:00 +19°C° 0 mm 11 mps 681 mmHg 40%
    16:00 +19°C° 0 mm 11 mps 681 mmHg 40%
    17:00 +18°C° 0 mm 11 mps 681 mmHg 41%
    18:00 +17°C° 0 mm 11 mps 681 mmHg 45%
    19:00 +14°C° 0 mm 10 mps 681 mmHg 49%
    20:00 +13°C° 0 mm 10 mps 681 mmHg 53%
    21:00 +12°C° 0 mm 10 mps 681 mmHg 56%
    22:00 +12°C° 0 mm 10 mps 681 mmHg 59%
    23:00 +11°C° 0 mm 10 mps 681 mmHg 62%
    Show more